Previsão horária em Bolshie Kaybicy

Hoje, 25 Fevereiro, Quinta-feira

Tempo Temperatura Precipitação Vento Pressão Humidade
00:00 -25°C° 0 mm 1 m/s 766 mmHg 96%
01:00 -25°C° 0 mm 1 m/s 766 mmHg 96%
02:00 -24°C° 0 mm 1 m/s 765 mmHg 95%
03:00 -24°C° 0 mm 1 m/s 765 mmHg 95%
04:00 -27°C° 0 mm 2 m/s 764 mmHg 94%
05:00 -26°C° 0 mm 2 m/s 764 mmHg 93%
06:00 -26°C° 0 mm 2 m/s 763 mmHg 92%
07:00 -26°C° 0 mm 3 m/s 763 mmHg 91%
08:00 -26°C° 0 mm 4 m/s 762 mmHg 90%
09:00 -26°C° 0 mm 5 m/s 761 mmHg 89%
10:00 -25°C° 0.1 mm 5 m/s 760 mmHg 91%
11:00 -24°C° 0.1 mm 6 m/s 760 mmHg 92%
12:00 -23°C° 0.1 mm 6 m/s 759 mmHg 94%
13:00 -22°C° 0.2 mm 6 m/s 758 mmHg 94%
14:00 -21°C° 0.2 mm 7 m/s 757 mmHg 94%
15:00 -21°C° 0.2 mm 7 m/s 756 mmHg 94%
16:00 -21°C° 0.4 mm 7 m/s 756 mmHg 94%
17:00 -20°C° 0.4 mm 7 m/s 755 mmHg 94%
18:00 -20°C° 0.4 mm 7 m/s 754 mmHg 94%
19:00 -20°C° 0.3 mm 6 m/s 754 mmHg 94%
20:00 -21°C° 0.3 mm 6 m/s 754 mmHg 94%
21:00 -21°C° 0.3 mm 6 m/s 753 mmHg 94%
22:00 -20°C° 0.2 mm 5 m/s 753 mmHg 94%
23:00 -19°C° 0.2 mm 5 m/s 752 mmHg 94%

Amanhã, 26 Fevereiro, Sexta-feira

Tempo Temperatura Precipitação Vento Pressão Humidade
00:00 -19°C° 0.2 mm 5 m/s 752 mmHg 94%
01:00 -19°C° 0.1 mm 5 m/s 752 mmHg 94%
02:00 -18°C° 0.1 mm 4 m/s 752 mmHg 94%
03:00 -18°C° 0.1 mm 4 m/s 752 mmHg 94%
04:00 -18°C° 0.1 mm 4 m/s 751 mmHg 95%
05:00 -18°C° 0.1 mm 4 m/s 750 mmHg 95%
06:00 -17°C° 0.1 mm 3 m/s 750 mmHg 95%
07:00 -18°C° 0 mm 4 m/s 750 mmHg 95%
08:00 -17°C° 0 mm 4 m/s 750 mmHg 94%
09:00 -16°C° 0 mm 4 m/s 750 mmHg 94%
10:00 -15°C° 0.1 mm 4 m/s 749 mmHg 94%
11:00 -14°C° 0.1 mm 4 m/s 749 mmHg 94%
12:00 -12°C° 0.1 mm 4 m/s 748 mmHg 94%
13:00 -12°C° 0.1 mm 4 m/s 748 mmHg 94%
14:00 -12°C° 0.1 mm 5 m/s 747 mmHg 94%
15:00 -12°C° 0.1 mm 5 m/s 746 mmHg 94%
16:00 -11°C° 0.6 mm 6 m/s 745 mmHg 94%
17:00 -11°C° 0.6 mm 6 m/s 744 mmHg 95%
18:00 -11°C° 0.6 mm 7 m/s 743 mmHg 95%
19:00 -9°C° 1.1 mm 7 m/s 742 mmHg 95%
20:00 -8°C° 1.1 mm 7 m/s 740 mmHg 96%
21:00 -6°C° 1.1 mm 7 m/s 739 mmHg 96%
22:00 -4°C° 1.6 mm 6 m/s 738 mmHg 97%
23:00 -3°C° 1.6 mm 6 m/s 737 mmHg 98%

Depois de amanhã, 27 Fevereiro, Sábado

Tempo Temperatura Precipitação Vento Pressão Humidade
00:00 0°C° 1.6 mm 5 m/s 736 mmHg 99%
01:00 -1°C° 0.1 mm 6 m/s 736 mmHg 97%
02:00 -2°C° 0.1 mm 6 m/s 736 mmHg 96%
03:00 -2°C° 0.1 mm 7 m/s 736 mmHg 94%
04:00 -2°C° 0 mm 6 m/s 736 mmHg 95%
05:00 -2°C° 0 mm 6 m/s 736 mmHg 95%
06:00 -3°C° 0 mm 6 m/s 735 mmHg 96%
07:00 -3°C° 0.1 mm 6 m/s 736 mmHg 96%
08:00 -3°C° 0.1 mm 6 m/s 736 mmHg 96%
09:00 -3°C° 0.1 mm 6 m/s 736 mmHg 96%
10:00 -3°C° 0.1 mm 6 m/s 736 mmHg 97%
11:00 -2°C° 0.1 mm 5 m/s 736 mmHg 98%
12:00 -1°C° 0.1 mm 5 m/s 736 mmHg 99%
13:00 -2°C° 0.2 mm 4 m/s 736 mmHg 99%
14:00 -2°C° 0.2 mm 4 m/s 737 mmHg 99%
15:00 -1°C° 0.2 mm 3 m/s 737 mmHg 99%
16:00 -4°C° 0.4 mm 4 m/s 737 mmHg 97%
17:00 -7°C° 0.4 mm 5 m/s 738 mmHg 95%
18:00 -11°C° 0.4 mm 5 m/s 738 mmHg 94%
19:00 -12°C° 0.1 mm 5 m/s 739 mmHg 94%
20:00 -13°C° 0.1 mm 5 m/s 739 mmHg 94%
21:00 -14°C° 0.1 mm 5 m/s 740 mmHg 94%
22:00 -15°C° 0.1 mm 5 m/s 740 mmHg 93%
23:00 -15°C° 0.1 mm 5 m/s 741 mmHg 93%

28 Fevereiro, Domingo

Tempo Temperatura Precipitação Vento Pressão Humidade
00:00 -17°C° 0.1 mm 6 m/s 741 mmHg 92%
01:00 -18°C° 0 mm 5 m/s 742 mmHg 93%
02:00 -19°C° 0 mm 5 m/s 742 mmHg 93%
03:00 -20°C° 0 mm 5 m/s 743 mmHg 94%
04:00 -21°C° 0 mm 5 m/s 743 mmHg 94%
05:00 -22°C° 0 mm 5 m/s 744 mmHg 94%
06:00 -24°C° 0 mm 5 m/s 744 mmHg 94%
07:00 -24°C° 0 mm 5 m/s 745 mmHg 94%
08:00 -24°C° 0 mm 5 m/s 745 mmHg 93%
09:00 -24°C° 0 mm 5 m/s 746 mmHg 93%
10:00 -22°C° 0 mm 5 m/s 746 mmHg 92%
11:00 -21°C° 0 mm 5 m/s 747 mmHg 91%
12:00 -20°C° 0 mm 5 m/s 747 mmHg 91%
13:00 -20°C° 0 mm 5 m/s 748 mmHg 91%
14:00 -19°C° 0 mm 5 m/s 748 mmHg 90%
15:00 -18°C° 0 mm 5 m/s 748 mmHg 90%
16:00 -19°C° 0 mm 5 m/s 749 mmHg 91%
17:00 -19°C° 0 mm 4 m/s 749 mmHg 93%
18:00 -19°C° 0 mm 4 m/s 750 mmHg 94%
19:00 -20°C° 0 mm 4 m/s 751 mmHg 94%
20:00 -20°C° 0 mm 4 m/s 751 mmHg 94%
21:00 -22°C° 0 mm 4 m/s 752 mmHg 95%
22:00 -23°C° 0 mm 4 m/s 752 mmHg 95%
23:00 -22°C° 0 mm 3 m/s 752 mmHg 96%

1 Março, Segunda-feira

Tempo Temperatura Precipitação Vento Pressão Humidade
00:00 -23°C° 0 mm 3 m/s 753 mmHg 97%
01:00 -24°C° 0 mm 3 m/s 753 mmHg 97%
02:00 -24°C° 0 mm 3 m/s 754 mmHg 97%
03:00 -24°C° 0 mm 3 m/s 754 mmHg 97%
04:00 -25°C° 0 mm 3 m/s 755 mmHg 97%
05:00 -25°C° 0 mm 3 m/s 755 mmHg 97%
06:00 -26°C° 0 mm 3 m/s 755 mmHg 97%
07:00 -26°C° 0 mm 4 m/s 756 mmHg 96%
08:00 -25°C° 0 mm 4 m/s 756 mmHg 95%
09:00 -25°C° 0 mm 4 m/s 757 mmHg 94%
10:00 -23°C° 0 mm 4 m/s 757 mmHg 94%
11:00 -21°C° 0 mm 3 m/s 757 mmHg 93%
12:00 -19°C° 0 mm 3 m/s 757 mmHg 92%
13:00 -18°C° 0 mm 3 m/s 757 mmHg 92%
14:00 -18°C° 0 mm 3 m/s 757 mmHg 92%
15:00 -17°C° 0 mm 3 m/s 757 mmHg 91%
16:00 -18°C° 0 mm 3 m/s 757 mmHg 92%
17:00 -19°C° 0 mm 3 m/s 757 mmHg 93%
18:00 -19°C° 0 mm 2 m/s 757 mmHg 94%
19:00 -19°C° 0 mm 2 m/s 757 mmHg 95%
20:00 -19°C° 0 mm 2 m/s 757 mmHg 95%
21:00 -19°C° 0 mm 2 m/s 756 mmHg 95%
22:00 -19°C° 0 mm 3 m/s 756 mmHg 95%
23:00 -18°C° 0 mm 3 m/s 755 mmHg 95%

2 Março, Terça-feira

Tempo Temperatura Precipitação Vento Pressão Humidade
00:00 -18°C° 0 mm 4 m/s 754 mmHg 95%
01:00 -17°C° 0.2 mm 4 m/s 753 mmHg 95%
02:00 -15°C° 0.2 mm 5 m/s 752 mmHg 95%
03:00 -14°C° 0.2 mm 6 m/s 751 mmHg 94%
04:00 -12°C° 0.6 mm 6 m/s 750 mmHg 94%
05:00 -11°C° 0.6 mm 6 m/s 749 mmHg 94%
06:00 -10°C° 0.6 mm 6 m/s 747 mmHg 94%
07:00 -10°C° 0.4 mm 6 m/s 747 mmHg 94%
08:00 -9°C° 0.4 mm 6 m/s 746 mmHg 95%
09:00 -8°C° 0.4 mm 6 m/s 745 mmHg 95%
10:00 -5°C° 0.3 mm 6 m/s 744 mmHg 96%
11:00 -4°C° 0.3 mm 6 m/s 744 mmHg 97%
12:00 -2°C° 0.3 mm 5 m/s 743 mmHg 99%
13:00 -3°C° 0.4 mm 6 m/s 743 mmHg 99%
14:00 -2°C° 0.4 mm 6 m/s 742 mmHg 98%
15:00 -2°C° 0.4 mm 6 m/s 742 mmHg 98%
16:00 -3°C° 0.2 mm 6 m/s 742 mmHg 95%
17:00 -3°C° 0.2 mm 6 m/s 743 mmHg 92%
18:00 -3°C° 0.2 mm 6 m/s 743 mmHg 90%
19:00 -4°C° 0 mm 6 m/s 743 mmHg 89%
20:00 -5°C° 0 mm 6 m/s 744 mmHg 89%
21:00 -5°C° 0 mm 6 m/s 744 mmHg 88%
22:00 -5°C° 0 mm 6 m/s 744 mmHg 89%
23:00 -5°C° 0 mm 6 m/s 745 mmHg 90%
Mostrar mais